GW1374 Weather Reports


time (UTC)temp
C
wind
direction
speed
KPH
gust
KPH
rain 1hr
cm
rain 24hr
cm
rain mn
cm
humidity
%
barometer
mb
20260509201546 10 193 1.6 4.8 0.00 0.71 0.71 96 1007.3
20260509200047 10 205 1.6 6.4 0.00 0.71 0.71 95 1007.4
20260509194542 10 153 1.6 4.8 0.00 0.71 0.71 95 1007.5
20260509193047 10 234 1.6 4.8 0.00 0.71 0.71 95 1007.7
20260509191543 10 239 1.6 6.4 0.00 0.71 0.71 95 1007.7
20260509190047 10 168 1.6 6.4 0.00 0.71 0.71 95 1007.8
20260509184543 9 221 1.6 6.4 0.00 0.71 0.71 95 1007.9
20260509183041 9 227 1.6 4.8 0.00 0.71 0.71 95 1007.8
20260509181541 9 205 1.6 4.8 0.00 0.71 0.71 95 1007.8
20260509180047 9 227 1.6 6.4 0.00 0.71 0.71 95 1007.8
20260509174542 9 215 1.6 6.4 0.00 0.71 0.71 95 1007.8
20260509173108 9 221 1.6 8.0 0.00 0.71 0.71 96 1007.8
20260509171545 9 221 0.0 4.8 0.00 0.71 0.71 95 1007.7
20260509170053 9 221 0.0 3.2 0.03 0.71 0.71 95 1007.6
20260509164554 8 205 0.0 4.8 0.03 0.71 0.71 95 1007.8
20260509163048 8 178 1.6 4.8 0.03 0.71 0.71 95 1007.8
20260509161544 8 162 1.6 4.8 0.03 0.71 0.71 95 1008.0
20260509160047 9 221 1.6 4.8 0.03 0.69 0.69 95 1008.1
20260509154548 8 162 1.6 4.8 0.03 0.69 0.69 95 1008.3
20260509153049 9 185 1.6 6.4 0.05 0.69 0.69 95 1008.1
20260509151605 9 171 1.6 4.8 0.08 0.69 0.69 96 1008.4
20260509150053 8 150 1.6 6.4 0.08 0.66 0.66 96 1008.7
20260509144545 8 229 1.6 6.4 0.10 0.66 0.66 96 1008.8
20260509143054 8 187 1.6 4.8 0.10 0.64 0.64 96 1008.8
20260509141552 8 153 1.6 3.2 0.10 0.61 0.61 96 1008.9
20260509140049 8 227 1.6 3.2 0.10 0.58 0.58 96 1008.9
20260509134548 8 238 1.6 3.2 0.13 0.56 0.56 96 1008.8
20260509133041 8 238 1.6 3.2 0.13 0.53 0.53 96 1009.0
20260509131558 7 243 1.6 3.2 0.18 0.51 0.51 96 1009.0
20260509130108 7 190 1.6 4.8 0.20 0.48 0.48 95 1009.1
20260509124544 7 193 0.0 3.2 0.18 0.43 0.43 95 1009.1
20260509123115 7 0 0.0 3.2 0.20 0.41 0.41 95 1009.2
20260509121545 7 0 0.0 3.2 0.20 0.33 0.33 95 1009.3
20260509120050 7 0 0.0 3.2 0.20 0.28 0.28 95 1009.4
20260509114606 7 178 0.0 3.2 0.23 0.25 0.25 95 1009.4
20260509113040 7 196 1.6 3.2 0.20 0.20 0.20 95 1009.4
20260509111542 7 215 0.0 3.2 0.13 0.13 0.13 95 1009.5
20260509110046 7 221 0.0 3.2 0.08 0.08 0.08 95 1009.2
20260509104544 7 0 0.0 3.2 0.03 0.03 0.03 95 1009.1
20260509103044 6 221 0.0 3.2 0.00 0.00 0.00 94 1009.1
20260509101553 7 221 0.0 4.8 0.00 0.00 0.00 94 1009.2
20260509100047 7 243 0.0 3.2 0.00 0.00 0.00 94 1008.9
20260509094554 6 0 0.0 3.2 0.00 0.00 0.00 94 1009.0
20260509093049 6 178 0.0 3.2 0.00 0.00 0.00 93 1009.0
20260509091550 6 221 0.0 3.2 0.00 0.00 0.00 93 1009.2
20260509090046 6 0 0.0 3.2 0.00 0.00 0.00 93 1009.2
20260509084556 6 205 0.0 3.2 0.00 0.00 0.00 93 1009.3
20260509083043 6 193 1.6 6.4 0.00 0.00 0.00 92 1009.4
20260509081556 6 178 0.0 3.2 0.00 0.00 0.00 90 1009.5
20260509080054 6 221 1.6 4.8 0.00 0.00 0.00 88 1009.7
20260509074545 6 221 0.0 3.2 0.00 0.00 0.00 88 1009.5
20260509073046 6 0 0.0 3.2 0.00 0.00 0.00 87 1009.6
20260509071551 6 0 0.0 1.6 0.00 0.00 0.00 85 1009.4
20260509070050 5 0 0.0 3.2 0.00 0.00 0.00 80 1009.4
20260509064553 5 119 0.0 3.2 0.00 0.00 0.00 79 1009.5
20260509063047 6 165 0.0 3.2 0.00 0.00 0.00 77 1009.7
20260509061600 6 0 0.0 3.2 0.00 0.00 0.00 76 1009.9
20260509060048 6 178 1.6 3.2 0.00 0.00 0.00 73 1010.2
20260509054605 6 51 0.0 3.2 0.00 0.00 0.00 71 1010.2
20260509053055 6 119 0.0 3.2 0.00 0.00 0.00 69 1010.5
20260509051549 6 119 0.0 3.2 0.00 0.00 0.00 69 1010.4
20260509050052 6 131 0.0 3.2 0.00 0.00 0.00 67 1010.2
20260509044545 6 0 0.0 3.2 0.00 0.00 0.00 67 1010.4
20260509043041 7 115 1.6 3.2 0.00 0.00 0.00 66 1010.4
20260509041542 7 126 0.0 3.2 0.00 0.00 0.00 64 1010.5
20260509040045 7 0 0.0 3.2 0.00 0.00 0.00 64 1010.4
20260509034541 7 105 1.6 3.2 0.00 0.00 0.00 63 1010.3
20260509033045 7 105 1.6 3.2 0.00 0.00 0.00 63 1010.3
20260509031604 7 93 1.6 3.2 0.00 0.00 0.00 64 1010.4
20260509030050 7 93 0.0 3.2 0.00 0.00 0.00 65 1010.7
20260509024541 7 115 1.6 3.2 0.00 0.00 0.00 62 1010.9
20260509023041 8 110 1.6 4.8 0.00 0.00 0.00 61 1010.8
20260509021548 8 115 1.6 4.8 0.00 0.00 0.00 60 1010.7
20260509020049 8 115 1.6 3.2 0.00 0.00 0.00 60 1010.9
20260509014544 8 126 0.0 3.2 0.00 0.00 0.00 60 1010.8
20260509013042 8 142 1.6 4.8 0.00 0.00 0.00 60 1010.7
20260509011541 8 126 0.0 3.2 0.00 0.00 0.00 61 1010.4
20260509010049 8 0 1.6 4.8 0.00 0.00 0.00 60 1010.0
20260509004542 9 115 1.6 3.2 0.00 0.00 0.00 58 1009.9
20260509003047 9 105 1.6 3.2 0.00 0.00 0.00 57 1009.8
20260509001544 9 0 1.6 3.2 0.00 0.00 0.00 56 1009.8
20260509000045 10 0 0.0 1.6 0.00 0.00 0.00 52 1009.7
20260508234548 10 0 0.0 1.6 0.00 0.00 0.00 53 1009.7
20260508233053 10 93 1.6 3.2 0.00 0.00 0.00 51 1009.5
20260508231543 10 83 1.6 3.2 0.00 0.00 0.00 52 1009.5
20260508230122 11 83 0.0 4.8 0.00 0.00 0.00 53 1009.4
20260508224553 11 51 0.0 4.8 0.00 0.00 0.00 52 1009.3
20260508223049 11 162 1.6 4.8 0.00 0.00 0.00 49 1009.2
20260508221547 11 47 1.6 6.4 0.00 0.00 0.00 50 1009.1
20260508220113 11 20 3.2 9.7 0.00 0.00 0.00 48 1009.3
20260508214556 11 76 1.6 6.4 0.00 0.00 0.00 50 1009.4
20260508213053 11 51 0.0 9.7 0.00 0.00 0.00 50 1009.6
20260508211548 11 18 3.2 11.3 0.00 0.00 0.00 51 1009.5
20260508210046 11 101 1.6 6.4 0.00 0.00 0.00 52 1009.7
20260508204546 10 0 1.6 6.4 0.00 0.00 0.00 50 1009.8
20260508203048 11 80 1.6 9.7 0.00 0.00 0.00 52 1010.0